7 * 24
多渠道服务支持
STARLINK-37206(NORAD编号68326)是美国太空探索技术公司(SpaceX)星链(Starlink)星座中的一颗低轨互联网卫星,隶属于星链一代组网卫星。该卫星运行于约550公里高度的近地轨道,采用Ku/Ka频段提供通信服务,旨在为全球用户提供高速低时延卫星互联网接入。作为SpaceX大规模星座部署的组成部分,它与其他星链卫星共同构建覆盖全球的天基通信网络,支持消费级互联网服务及潜在特殊领域应用,遵循星链星座离轨设计,退役后会再入大气层销毁。
美国
(US)
| 数据来源 | 国际轨道数据 |
| 星历时间: | 2026-06-09T22:48:14+0800 21小时前 查看轨道信息 |
| 半长轴: | 6853.495km |
| 偏心率: | 0.0001665 |
| 轨道倾角: | 53.159° |
| 近地点辐角 | 124.938° |
| 升交点赤经 | 281.025° |
| 平近点角 | 235.178° |
| 近地点: | 474.216km |
| 远地点: | 476.5km |
| 周期: | 94.108分钟 |
| 每日圈数: | 15.301522 |